sat.trackr.live / text

‹ back to catalog

STARLINK-5895

NORAD 55964 · 2023-037BC

PAYLOAD ACTIVE UNKNOWN

§ Identity

Operator
Country
US
Launch date
2023-03-17
Launch site
AFWTR
Launch vehicle
Mass (kg)
RCS (m²)

Purposes: comms

External: N2YO · Heavens-Above · Gunter

§ Orbital elements

Epoch: 2026-09-20T23:17:01.160448Z

Period
95.17 min
Inclination
69.9936°
Eccentricity
0.0002078
Mean motion
15.13104711 rev/d
Perigee alt
525.3 km
Apogee alt
528.2 km
Semi-major
6,904.9 km
B*
6.1198e-4
RAAN
118.8459°
Arg perigee
321.0606°
Mean anomaly
39.0411°
Rev number
19,405

§ Raw data

STARLINK-58951 55964U 23037BC  26263.97015232  .00010768  00000+0  61198-3 0  99912 55964  69.9936 118.8459 0002078 321.0606  39.0411 15.13104711194055

JSON: /api/v1/satellites/55964 · /tle

For live sub-satellite position, see the globe view (requires WebGL).

§ Visibility from observer

Set your observer location to see the next 7 days of passes ≥ 10°. The values pass through the URL so the page stays shareable.

No JS? Fill the form by hand. The geolocation button needs JavaScript.